FW7729 Weather Reports


Display with metric or nautical units.
time (UTC)temp
F
wind
direction
speed
MPH
gust
MPH
rain 1hr
in
rain 24hr
in
rain mn
in
humidity
%
barometer
mb
20260510200601 72 54 0.0 0.0 0.00 0.00 0.00 80 1011.7
20260510194927 73 49 0.0 0.0 0.00 0.00 0.00 74 1011.7
20260510194352 74 49 0.0 0.0 0.00 0.00 0.00 73 1011.7
20260510193248 76 49 0.0 0.0 0.00 0.00 0.00 68 1011.8
20260510191614 77 49 0.0 0.0 0.00 0.00 0.00 61 1011.8
20260510190510 77 227 0.0 0.0 0.00 0.00 0.00 61 1011.8
20260510185406 78 227 2.0 0.0 0.00 0.00 0.00 57 1011.9
20260510184302 78 156 1.0 0.0 0.00 0.00 0.00 57 1011.9
20260510183728 78 155 0.0 0.0 0.00 0.00 0.00 59 1011.8
20260510183154 78 156 0.0 0.0 0.00 0.00 0.00 57 1011.9
20260510182620 78 217 1.0 0.0 0.00 0.00 0.00 58 1011.9
20260510182046 78 110 1.0 0.0 0.00 0.00 0.00 59 1011.9
20260510180412 77 220 0.0 0.0 0.00 0.00 0.00 61 1012.1
20260510175838 77 220 0.0 0.0 0.00 0.00 0.00 61 1012.2
20260510175306 77 236 0.0 0.0 0.00 0.00 0.00 61 1012.2
20260510174730 78 236 0.0 0.0 0.00 0.00 0.00 59 1012.4
20260510174156 78 214 2.0 0.0 0.00 0.00 0.00 59 1012.4
20260510173622 78 191 1.0 0.0 0.00 0.00 0.00 59 1012.4
20260510172517 78 55 1.0 0.0 0.00 0.00 0.00 61 1012.4
20260510171943 78 208 0.0 0.0 0.00 0.00 0.00 60 1012.7
20260510171409 78 230 2.0 0.0 0.00 0.00 0.00 59 1012.6
20260510170835 78 304 1.0 0.0 0.00 0.00 0.00 59 1012.6
20260510170301 77 149 1.0 0.0 0.00 0.00 0.00 61 1012.7
20260510165157 78 154 2.0 0.0 0.00 0.00 0.00 61 1012.6
20260510162953 76 245 1.0 0.0 0.00 0.00 0.00 63 1013.0
20260510162418 76 256 1.0 0.0 0.00 0.00 0.00 63 1013.0
20260510161314 76 291 1.0 0.0 0.00 0.00 0.00 61 1013.0
20260510160739 76 214 1.0 0.0 0.00 0.00 0.00 63 1013.1
20260510160206 76 262 0.0 0.0 0.00 0.00 0.00 65 1013.1
20260510155101 76 231 0.0 0.0 0.00 0.00 0.00 65 1013.2
20260510154527 75 223 0.0 0.0 0.00 0.00 0.00 66 1013.2
20260510151753 74 246 1.0 0.0 0.00 0.00 0.00 66 1013.1
20260510151219 73 261 0.0 0.0 0.00 0.00 0.00 67 1013.1
20260510145545 73 228 1.0 0.0 0.00 0.00 0.00 68 1013.2
20260510144441 73 303 0.0 0.0 0.00 0.00 0.00 71 1012.9
20260510143907 72 303 1.0 0.0 0.00 0.00 0.00 69 1012.9
20260510143333 72 218 2.0 0.0 0.00 0.00 0.00 70 1012.8
20260510142759 72 190 0.0 0.0 0.00 0.00 0.00 73 1012.6
20260510142225 72 189 2.0 0.0 0.00 0.00 0.00 71 1012.5
20260510141651 71 186 0.0 0.0 0.00 0.00 0.00 74 1012.4
20260510141117 71 85 0.0 0.0 0.00 0.00 0.00 74 1012.5
20260510140543 71 58 0.0 0.0 0.00 0.00 0.00 77 1012.4
20260510140009 70 58 0.0 0.0 0.00 0.00 0.00 79 1012.5
20260510135435 70 58 0.0 0.0 0.00 0.00 0.00 80 1012.5
20260510134901 70 58 0.0 0.0 0.00 0.00 0.00 82 1012.6
20260510134327 69 58 0.0 0.0 0.00 0.00 0.00 83 1012.7
20260510133223 67 54 0.0 0.0 0.00 0.00 0.00 86 1012.8
20260510132119 67 54 0.0 0.0 0.00 0.00 0.00 86 1012.8
20260510131014 65 54 0.0 0.0 0.00 0.00 0.00 91 1012.6
20260510125910 63 54 0.0 0.0 0.00 0.00 0.00 96 1012.7
20260510125336 62 54 0.0 0.0 0.00 0.00 0.00 99 1012.6
20260510124802 61 54 0.0 0.0 0.00 0.00 0.00 10 1012.7
20260510123658 59 54 0.0 0.0 0.00 0.00 0.00 10 1012.9
20260510123124 58 54 0.0 0.0 0.00 0.00 0.00 10 1013.0
20260510122550 57 54 0.0 0.0 0.00 0.00 0.00 10 1013.0
20260510122016 56 54 0.0 0.0 0.00 0.00 0.00 10 1012.9
20260510121442 55 54 0.0 0.0 0.00 0.00 0.00 10 1012.8
20260510115808 54 54 0.0 0.0 0.00 0.00 0.00 10 1012.7
20260510115234 53 54 0.0 0.0 0.00 0.00 0.00 10 1012.7
20260510114130 52 54 0.0 0.0 0.00 0.00 0.00 10 1012.6
20260510113556 52 54 0.0 0.0 0.00 0.00 0.00 10 1012.5
20260510111922 51 54 0.0 0.0 0.00 0.00 0.00 10 1012.1
20260510111348 51 54 0.0 0.0 0.00 0.00 0.00 10 1012.0
20260510110814 50 54 0.0 0.0 0.00 0.00 0.00 10 1011.8
20260510110240 50 54 0.0 0.0 0.00 0.00 0.00 10 1011.7
20260510104606 50 54 0.0 0.0 0.00 0.00 0.00 10 1011.5
20260510104032 50 54 0.0 0.0 0.00 0.00 0.00 10 1011.4
20260510103458 50 54 0.0 0.0 0.00 0.00 0.00 10 1011.4
20260510102353 50 54 0.0 0.0 0.00 0.00 0.00 10 1011.1
20260510100719 50 54 0.0 0.0 0.00 0.00 0.00 10 1011.0
20260510095615 50 54 0.0 0.0 0.00 0.00 0.00 10 1010.8
20260510095041 50 54 0.0 0.0 0.00 0.00 0.00 10 1010.8
20260510093937 50 54 0.0 0.0 0.00 0.00 0.00 10 1010.8
20260510093403 50 54 0.0 0.0 0.00 0.00 0.00 10 1010.9
20260510092829 50 54 0.0 0.0 0.00 0.00 0.00 10 1010.8
20260510092255 50 54 0.0 0.0 0.00 0.00 0.00 10 1010.8
20260510091721 50 54 0.0 0.0 0.00 0.00 0.00 10 1010.8
20260510090617 50 54 0.0 0.0 0.00 0.00 0.00 10 1010.8
20260510090043 50 54 0.0 0.0 0.00 0.00 0.00 10 1010.7
20260510084409 51 54 0.0 0.0 0.00 0.00 0.00 10 1010.8
20260510083835 51 54 0.0 0.0 0.00 0.00 0.00 10 1010.7
20260510083300 51 55 0.0 0.0 0.00 0.00 0.00 10 1010.8
20260510082727 51 54 0.0 0.0 0.00 0.00 0.00 10 1010.7
20260510082152 51 54 0.0 0.0 0.00 0.00 0.00 10 1010.7
20260510081048 51 54 0.0 0.0 0.00 0.00 0.00 10 1010.5
20260510075945 52 54 0.0 0.0 0.00 0.00 0.00 10 1010.3
20260510074310 52 54 0.0 0.0 0.00 0.00 0.00 10 1010.2
20260510073736 52 54 0.0 0.0 0.00 0.00 0.00 10 1010.1
20260510073202 52 54 0.0 0.0 0.00 0.00 0.00 10 1010.2
20260510072628 52 54 0.0 0.0 0.00 0.00 0.00 10 1010.2
20260510072054 52 54 0.0 0.0 0.00 0.00 0.00 10 1010.2
20260510071520 52 54 0.0 0.0 0.00 0.00 0.00 10 1010.1
20260510065316 53 54 0.0 0.0 0.00 0.00 0.00 10 1009.8
20260510064742 53 54 0.0 0.0 0.00 0.00 0.00 10 1009.7
20260510061437 54 54 0.0 0.0 0.00 0.00 0.00 10 1009.6
20260510060904 54 54 0.0 0.0 0.00 0.00 0.00 10 1009.7
20260510055759 54 54 0.0 0.0 0.00 0.00 0.00 10 1009.6
20260510054655 55 54 0.0 0.0 0.00 0.00 0.00 10 1009.7
20260510053551 55 54 0.0 0.0 0.00 0.00 0.00 10 1009.7
20260510053017 55 54 0.0 0.0 0.00 0.00 0.00 10 1009.7
20260510051343 56 54 0.0 0.0 0.00 0.00 0.00 10 1009.8
20260510050809 56 176 1.0 0.0 0.00 0.00 0.00 10 1009.8
20260510050235 56 166 0.0 0.0 0.00 0.00 0.00 10 1009.8
20260510045701 56 166 0.0 0.0 0.00 0.00 0.00 10 1009.7
20260510045127 57 166 0.0 0.0 0.00 0.00 0.00 10 1009.8
20260510044553 57 166 0.0 0.0 0.00 0.00 0.00 10 1009.7
20260510043449 57 166 0.0 0.0 0.00 0.00 0.00 10 1009.5
20260510042915 57 166 0.0 0.0 0.00 0.00 0.00 10 1009.5
20260510034510 58 166 0.0 0.0 0.00 0.00 0.00 97 1009.4
20260510033936 58 166 0.0 0.0 0.00 0.00 0.00 97 1009.5
20260510033402 59 166 0.0 0.0 0.00 0.00 0.00 97 1009.4
20260510032828 59 166 0.0 0.0 0.00 0.00 0.00 97 1009.3
20260510032254 59 166 0.0 0.0 0.00 0.00 0.00 96 1009.3
20260510031720 59 166 0.0 0.0 0.00 0.00 0.00 96 1009.4
20260510030616 60 166 0.0 0.0 0.00 0.00 0.00 95 1009.3
20260510025512 60 166 0.0 0.0 0.00 0.00 0.00 95 1009.4
20260510024408 60 166 0.0 0.0 0.00 0.00 0.00 94 1009.3
20260510022734 61 166 0.0 0.0 0.00 0.00 0.00 93 1009.1
20260510022200 61 166 0.0 0.0 0.00 0.00 0.00 93 1009.1
20260510021626 61 166 0.0 0.0 0.00 0.00 0.00 93 1009.1
20260510021052 61 166 0.0 0.0 0.00 0.00 0.00 92 1009.0
20260510020517 61 166 0.0 0.0 0.00 0.00 0.00 92 1009.0
20260510013743 62 166 0.0 0.0 0.00 0.00 0.00 90 1008.8
20260510013209 62 174 0.0 0.0 0.00 0.00 0.00 90 1008.7
20260510012635 62 174 0.0 0.0 0.00 0.00 0.00 89 1008.6
20260510012101 63 174 0.0 0.0 0.00 0.00 0.00 89 1008.4
20260510010957 63 174 0.0 0.0 0.00 0.00 0.00 87 1008.2
20260510005853 64 174 0.0 0.0 0.00 0.00 0.00 86 1008.2
20260510005319 64 174 0.0 0.0 0.00 0.00 0.00 85 1008.1
20260510004215 65 174 0.0 0.0 0.00 0.00 0.00 85 1008.1
20260510003641 65 174 0.0 0.0 0.00 0.00 0.00 84 1008.0
20260510003107 66 174 0.0 0.0 0.00 0.00 0.00 83 1008.1
20260510002533 66 174 0.0 0.0 0.00 0.00 0.00 82 1008.0
20260510001959 67 174 0.0 0.0 0.00 0.00 0.00 82 1007.9
20260510001425 67 174 0.0 0.0 0.00 0.00 0.00 81 1007.8
20260510000850 67 174 0.0 0.0 0.00 0.00 0.00 80 1007.9
20260510000318 68 174 0.0 0.0 0.00 0.00 0.00 79 1007.9
20260509235742 68 174 0.0 0.0 0.00 0.00 0.00 79 1007.7
20260509235208 68 174 0.0 0.0 0.00 0.00 0.00 78 1007.7
20260509234104 69 174 0.0 0.0 0.00 0.00 0.00 77 1007.6
20260509233530 69 174 0.0 0.0 0.00 0.00 0.00 77 1007.5
20260509232955 70 174 0.0 0.0 0.00 0.00 0.00 76 1007.5
20260509232421 70 174 0.0 0.0 0.00 0.00 0.00 76 1007.5
20260509230747 70 174 0.0 0.0 0.00 0.00 0.00 75 1007.4
20260509230213 71 174 0.0 0.0 0.00 0.00 0.00 74 1007.5
20260509225109 71 174 0.0 0.0 0.00 0.00 0.00 72 1007.4
20260509224535 71 174 0.0 0.0 0.00 0.00 0.00 72 1007.4
20260509224001 72 191 0.0 0.0 0.00 0.00 0.00 71 1007.5
20260509223427 72 191 0.0 0.0 0.00 0.00 0.00 70 1007.5
20260509222853 72 191 0.0 0.0 0.00 0.00 0.00 68 1007.4
20260509222319 72 202 0.0 0.0 0.00 0.00 0.00 66 1007.4
20260509221745 72 202 0.0 0.0 0.00 0.00 0.00 66 1007.5
20260509221211 72 202 0.0 0.0 0.00 0.00 0.00 65 1007.6
20260509220637 72 202 0.0 0.0 0.00 0.00 0.00 66 1007.6
20260509215529 72 207 0.0 0.0 0.00 0.00 0.00 66 1007.5
20260509214955 72 195 0.0 0.0 0.00 0.00 0.00 66 1007.5
20260509214421 72 195 0.0 0.0 0.00 0.00 0.00 68 1007.5
20260509213847 71 189 0.0 0.0 0.00 0.00 0.00 71 1007.5
20260509213312 71 189 0.0 0.0 0.00 0.00 0.00 71 1007.4
20260509212739 71 244 0.0 0.0 0.00 0.00 0.00 71 1007.4
20260509211104 72 252 1.0 0.0 0.00 0.00 0.00 68 1007.5
20260509210001 71 31 0.0 0.0 0.00 0.00 0.00 69 1007.3
20260509205426 71 178 2.0 0.0 0.00 0.00 0.00 69 1007.5
20260509204322 71 198 0.0 0.0 0.00 0.00 0.00 71 1007.5
20260509203748 71 166 1.0 0.0 0.00 0.00 0.00 70 1007.5
20260509203214 71 221 1.0 0.0 0.00 0.00 0.00 71 1007.4
20260509202640 71 162 0.0 0.0 0.00 0.00 0.00 71 1007.3
20260509202106 71 168 3.0 0.0 0.00 0.00 0.00 71 1007.3